Location: Bodest
(46.3000°N, 22.5667°E)
Time: 01:03:21
(UTC+00:00)

Cosmos 2263 Rocket - Pass Details

Date: 16 October 2021
Orbit: 825 x 847 km, 71.0° (Epoch: 02 December)

Event Time Altitude Azimuth Distance (km) Brightness Sun altitude
Rises 19:04:44 0° 319° (NW) 3,372 6.2 -35.1°
Reaches altitude 10° 19:07:55 10° 302° (WNW) 2,433 5.4 -35.6°
Maximum altitude 19:11:31 18° 261° (W) 1,928 4.5 -36.1°
Enters shadow 19:13:16 16° 238° (WSW) 2,054 4.4 -36.4°
